Temperature
11 11 12 13 16 17 18 20 20 21 22 22 21 22 23 23 23 23 18 18 17 16 16 16 16 16 16 16 16 16 16 16 16 16 16 16 16 16 16 17 17 17 17 16 16 16 16 16 16
10 11 12 13 16 16 18 20 20 20 21 20 20 21 21 22 20 18 18 17 16 16 15 16 16 16 16 16 16 16 16 16 16 16 16 16 16 16 16 17 17 17 17 17 17 17 17 17 17
10 10 12 14 15 17 18 20 20 20 20 19 20 20 20 20 19 18 17 17 16 16 15 15 16 16 16 16 16 16 16 16 16 16 16 16 16 16 17 17 17 17 17 17 17 17 17 17 16
9 10 12 13 15 17 19 20 20 20 19 19 19 19 19 18 18 17 17 17 16 15 15 16 16 16 16 16 16 16 16 16 16 16 16 16 16 16 17 17 17 17 17 17 17 17 17 16 16
9 11 12 13 15 17 19 19 19 19 20 19 19 19 19 17 17 17 17 17 16 15 15 15 15 16 16 16 16 16 16 16 16 16 16 16 16 16 17 17 17 17 17 17 17 17 16 16 16
10 11 12 13 15 17 18 17 17 19 19 19 19 19 18 17 17 17 17 17 16 15 15 15 15 15 15 16 16 16 15 15 15 16 16 16 16 17 17 17 17 17 17 17 17 17 16 16 16
10 11 12 14 15 16 17 17 17 18 19 19 19 19 18 17 16 16 16 16 16 15 15 15 15 15 15 15 15 15 15 15 15 16 16 16 16 17 17 17 17 17 17 17 17 16 16 16 16
9 10 11 13 14 15 17 16 16 17 18 18 18 18 18 16 16 16 16 16 15 15 15 15 15 14 15 15 15 15 15 15 15 15 16 16 16 17 17 17 17 17 17 17 16 16 16 16 16
8 9 10 12 13 14 15 15 15 15 16 16 17 17 17 16 15 15 15 15 15 15 15 15 14 14 14 14 14 15 15 15 15 15 15 16 16 16 16 16 17 17 17 16 16 16 16 16 16
8 9 11 13 13 14 14 14 14 15 15 16 16 16 16 15 15 15 14 15 15 14 14 14 14 14 14 14 14 14 14 14 14 15 15 15 16 16 16 16 16 16 16 16 16 16 16 16 15
9 9 11 12 11 12 12 13 13 14 15 16 16 15 15 14 14 14 14 14 15 14 14 14 14 14 14 14 14 14 14 14 14 14 15 15 16 16 16 16 16 16 16 16 16 16 15 15 15
9 9 9 10 10 10 11 11 12 13 13 14 14 14 14 14 14 14 14 14 14 14 14 14 14 14 14 14 14 14 14 14 14 15 15 15 16 16 16 16 16 16 16 16 16 15 15 15 15
8 9 9 9 9 9 10 10 11 12 12 12 13 13 13 14 14 14 14 14 14 14 14 14 14 14 14 14 14 14 14 14 14 15 15 16 16 16 16 16 16 16 16 16 15 15 15 15 14
8 8 9 9 9 9 10 10 10 11 11 12 12 13 13 13 14 13 13 13 13 14 14 14 14 14 14 14 14 14 14 14 15 15 15 16 16 16 16 16 16 16 16 15 15 15 14 14 14
7 7 8 9 9 9 9 9 11 11 11 11 12 12 13 13 13 13 13 13 13 13 14 14 14 14 14 15 14 14 14 15 15 15 15 16 16 16 16 16 16 15 15 15 15 14 14 14 14
7 7 8 9 9 9 8 9 11 11 11 11 12 12 12 13 13 13 13 13 13 13 13 14 14 14 14 14 14 14 15 15 15 15 15 15 15 15 15 15 15 15 15 15 15 14 14 14 14
7 7 8 9 10 9 9 9 11 10 11 11 11 11 12 12 12 12 13 13 13 13 13 14 14 14 14 14 14 14 14 14 15 15 15 15 15 15 15 15 14 14 14 14 14 14 13 13 13
7 8 8 8 9 9 9 10 10 10 11 11 11 11 11 11 12 12 12 12 12 12 13 13 13 13 14 14 14 14 14 14 14 15 15 15 15 15 14 14 14 14 14 14 14 13 13 13 13
7 7 8 9 9 9 9 10 10 11 11 11 11 11 11 11 12 12 12 12 12 12 13 13 13 13 13 13 14 14 14 14 14 14 14 15 14 14 14 14 14 13 14 13 13 13 13 13 13
7 7 8 9 10 10 10 10 11 11 11 11 11 11 11 11 12 12 12 12 12 12 12 12 13 13 13 13 14 14 14 14 14 14 14 14 14 14 14 14 13 13 13 13 13 13 13 13 13
7 8 8 9 9 10 10 10 11 11 11 11 11 11 11 12 12 11 12 12 12 12 12 12 12 13 13 13 13 13 13 13 13 13 14 14 14 14 14 13 13 13 13 13 13 13 13 13 13
7 8 8 8 9 9 10 10 11 12 12 12 11 11 11 11 12 12 12 12 12 12 12 12 12 13 13 13 13 13 13 13 13 13 13 13 13 13 13 13 13 13 13 13 13 13 13 13 13
8 9 8 9 9 9 10 10 11 11 11 12 12 12 12 11 12 12 12 12 12 12 12 12 12 13 13 13 12 12 13 13 13 13 13 13 13 13 13 13 13 13 13 13 13 13 13 13 13
8 8 9 9 10 9 10 10 11 11 11 12 13 12 11 11 11 12 12 12 12 12 12 12 12 12 13 13 13 12 12 12 12 12 13 13 13 13 13 13 13 13 13 12 12 13 13 12 13
8 9 9 9 10 10 10 10 11 11 11 11 12 11 11 11 11 11 12 12 12 12 12 12 13 13 12 12 12 12 12 12 12 12 12 12 13 13 13 13 12 12 12 12 12 12 12 12 12
8 8 9 10 10 10 10 10 11 11 11 10 10 10 10 10 11 11 12 12 12 12 13 13 13 13 12 12 12 12 12 12 12 12 12 12 12 12 12 12 12 12 12 12 12 12 12 12 12
9 9 9 10 10 11 10 11 11 11 11 10 10 10 9 9 10 10 11 11 12 12 12 13 13 13 13 12 12 12 12 12 12 12 12 12 12 12 12 12 12 12 12 12 12 12 12 12 11
9 9 9 10 10 11 11 11 10 10 10 10 10 9 9 9 9 10 11 11 11 12 12 12 12 12 12 12 12 12 12 12 12 12 12 12 12 12 12 12 12 11 11 11 11 11 11 11 11
9 9 9 10 10 11 11 10 9 9 9 9 9 8 8 8 8 9 10 11 11 12 12 12 12 12 12 12 12 12 12 12 12 12 12 12 12 12 12 11 11 11 11 11 11 11 11 11 10
8 9 9 10 10 11 11 10 9 9 9 9 9 8 7 7 8 9 9 10 10 11 11 11 11 12 12 12 12 12 12 12 12 12 11 11 11 11 11 11 11 10 10 10 10 10 10 10 10
Wind_Speed
8 6 3 4 8 14 29 26 19 17 17 14 10 10 10 11 8 3 3 11 18 21 24 26 24 22 21 19 18 17 17 19 21 22 22 22 21 21 21 20 20 20 19 18 18 17 16 16 16
7 4 4 6 14 24 26 26 23 18 15 10 11 10 10 9 3 1 3 12 19 21 23 24 24 23 21 20 18 17 18 19 21 22 22 22 22 21 21 21 20 20 19 18 17 16 15 15 14
6 5 6 8 20 29 27 19 21 19 15 12 11 10 11 8 3 3 6 16 19 20 22 23 24 23 22 20 19 18 18 20 21 22 22 22 22 21 21 20 20 19 18 17 16 15 14 14 13
3 5 7 15 29 30 27 20 14 18 19 15 12 8 7 5 3 4 12 18 20 20 21 23 23 23 22 20 19 18 18 20 21 22 22 21 21 21 20 20 19 18 18 17 15 14 14 13 13
4 6 13 22 32 28 23 21 17 18 19 18 16 13 9 4 3 9 15 19 20 19 20 24 23 22 21 20 19 18 18 20 21 22 21 21 21 20 20 19 19 18 17 16 15 14 14 13 12
5 6 15 25 30 27 24 20 20 22 20 18 16 17 12 5 7 12 16 18 19 19 19 23 23 22 21 21 19 18 19 20 21 21 21 21 20 20 19 19 18 17 16 15 14 14 13 12 12
7 10 21 26 26 26 23 21 22 23 23 21 15 15 11 8 8 12 15 16 17 18 18 19 22 21 20 20 19 18 19 19 20 20 20 20 19 19 18 18 17 16 15 14 13 13 12 11 10
7 7 18 23 25 25 22 21 22 23 24 19 15 14 12 9 9 10 13 14 16 16 17 18 20 21 20 20 18 18 18 18 19 19 20 20 18 17 16 16 16 15 14 13 12 12 11 10 9
6 10 19 22 22 21 17 19 20 19 20 20 17 15 11 9 11 11 11 12 14 15 16 17 17 18 19 19 19 18 17 17 18 18 20 19 16 15 15 14 14 14 13 12 11 10 10 9 8
8 13 21 18 17 16 15 16 17 16 21 22 19 15 9 11 14 14 14 16 16 16 16 16 17 17 18 16 18 17 17 17 16 16 18 14 13 12 12 14 13 12 12 11 10 9 9 7 6
8 14 16 17 15 15 16 16 15 18 21 20 19 16 13 14 15 16 15 16 18 17 17 16 17 17 16 13 14 13 13 14 14 16 16 13 12 11 11 11 11 11 11 10 9 9 7 5 4
11 15 16 17 14 14 16 16 16 18 20 16 14 13 12 15 15 14 14 15 17 18 17 17 17 16 16 15 12 12 11 11 11 14 15 13 9 9 10 9 10 9 8 8 7 6 6 5 5
15 14 16 17 16 16 17 18 18 18 16 14 13 13 14 16 17 14 13 14 15 17 17 18 17 17 16 14 12 11 11 11 12 13 14 13 9 9 9 8 8 8 7 7 6 6 6 5 5
9 12 15 15 15 15 16 19 17 18 14 13 12 13 12 14 16 13 12 14 15 15 17 17 18 18 16 14 13 11 11 12 12 12 13 13 10 9 8 7 7 7 7 7 6 6 5 5 4
9 12 13 14 13 10 10 16 19 16 13 14 14 13 13 13 14 15 13 13 14 15 17 17 17 17 17 16 15 11 11 12 11 11 13 13 11 10 8 7 7 7 7 7 6 6 5 4 4
7 8 8 7 9 9 10 16 14 11 12 14 12 11 11 11 12 12 11 10 12 14 15 16 14 16 17 15 14 10 11 11 10 11 11 13 12 11 9 7 7 8 7 7 5 5 5 5 5
7 7 9 7 7 8 12 13 10 8 10 12 11 10 9 8 9 8 9 9 9 11 14 15 15 15 15 13 11 10 9 9 9 10 10 12 12 12 10 7 7 8 7 6 6 6 5 5 5
5 7 8 7 5 9 12 12 10 9 10 11 11 9 7 8 8 7 7 8 7 9 12 14 14 14 12 10 9 8 8 8 8 9 10 12 11 12 10 7 8 8 7 7 7 7 6 5 4
8 9 9 8 6 8 11 11 11 9 8 9 9 8 7 7 6 6 6 6 6 8 11 12 13 13 11 9 9 8 8 8 8 8 10 11 11 12 11 8 8 8 8 8 9 7 7 5 4
10 9 8 6 5 6 7 9 9 9 8 8 8 7 7 7 7 8 8 7 8 9 10 10 10 11 11 9 8 6 7 6 7 7 8 10 11 11 10 10 8 8 8 9 8 8 6 5 5
8 8 7 5 4 4 4 5 6 6 6 6 6 7 7 8 9 10 9 9 8 8 9 8 8 8 10 9 6 5 5 4 5 6 6 8 10 10 10 10 9 8 8 8 8 9 9 6 5
6 6 7 7 4 2 3 2 2 3 4 5 7 7 6 7 7 8 8 9 9 8 7 8 8 8 8 9 8 9 7 6 6 6 6 6 8 10 10 10 9 8 7 8 8 8 7 7 5
4 5 6 6 4 1 2 1 1 1 1 3 4 5 6 6 7 7 7 8 7 7 7 8 8 9 9 9 10 9 7 6 4 5 6 6 6 7 8 9 8 8 7 7 7 7 7 6 6
4 2 3 4 3 1 1 0 2 3 3 2 0 2 4 5 6 7 6 6 5 5 5 6 7 8 9 10 11 11 12 10 9 8 8 7 5 5 7 8 7 7 7 7 7 7 7 6 6
2 2 1 2 2 2 1 1 3 7 7 4 2 1 3 5 6 7 7 7 6 6 5 5 6 6 7 9 10 10 11 11 10 9 9 8 6 6 8 7 7 7 7 7 7 7 7 7 7
2 3 3 1 2 2 2 2 5 8 8 6 4 5 5 6 6 7 6 5 6 6 5 5 6 6 5 6 7 8 8 6 6 8 8 8 7 7 7 8 7 7 7 7 7 6 6 6 7
2 1 3 1 1 3 3 3 5 10 12 11 10 9 8 8 7 7 6 5 5 5 5 5 5 5 5 5 6 6 7 7 7 7 7 7 6 6 8 8 8 8 8 8 8 6 7 6 6
2 3 2 1 1 4 5 5 6 11 11 11 11 10 9 9 9 8 7 6 5 5 5 5 4 4 4 3 4 3 5 6 6 6 7 7 7 7 9 9 8 8 8 8 8 7 7 7 6
2 1 2 1 2 2 4 5 6 7 7 8 10 10 10 10 9 8 7 7 7 7 6 5 5 4 3 3 2 3 3 4 5 6 7 7 7 8 9 9 9 8 8 8 8 7 7 7 6
3 3 3 2 3 3 4 5 6 5 6 8 10 10 10 10 10 9 9 9 8 8 7 6 5 4 3 2 2 2 2 3 4 5 5 6 7 7 8 8 9 8 8 8 8 8 7 7 7
Wind_Direction
304 296 272 221 221 229 236 232 232 234 227 224 224 225 228 224 223 244 57 167 162 160 159 158 157 156 156 153 151 151 155 156 153 151 150 146 143 140 138 136 134 131 128 123 118 114 111 107 104
301 273 221 217 227 231 234 230 226 227 227 219 221 224 229 229 247 68 132 162 162 159 159 161 156 157 155 153 152 152 155 157 154 152 150 147 144 142 140 138 136 132 128 123 118 115 113 111 108
286 236 220 221 231 233 235 226 230 228 229 225 223 229 233 230 206 159 151 161 163 161 161 156 157 158 156 154 153 153 154 156 155 152 149 147 145 143 141 140 136 132 128 124 121 118 116 115 113
253 210 227 231 235 236 241 239 234 231 228 230 229 224 229 228 199 155 152 162 164 163 161 156 159 158 156 155 155 155 154 155 153 150 149 147 145 144 142 139 136 133 130 128 125 122 120 118 116
230 223 227 234 239 241 241 243 242 235 230 228 226 226 223 214 190 154 158 165 166 165 162 159 160 159 158 157 157 157 156 154 151 149 148 147 145 144 142 139 139 137 135 132 129 126 122 121 119
216 222 233 238 240 239 239 238 241 241 237 232 231 234 233 198 176 163 163 168 168 166 164 160 161 161 159 158 158 158 157 154 152 149 148 147 145 144 144 143 144 142 140 136 132 129 126 124 121
229 228 240 244 247 242 237 236 237 241 238 233 232 236 232 197 184 170 168 168 170 169 166 163 165 163 160 158 158 158 156 154 151 149 147 144 143 144 146 148 148 146 143 139 134 131 128 126 125
236 242 246 244 247 247 243 240 241 243 244 242 237 236 228 199 174 172 170 170 171 173 171 166 167 168 165 162 158 156 154 152 148 144 140 138 140 144 147 151 150 148 145 141 137 133 129 127 128
226 237 243 242 245 249 249 245 243 248 251 245 238 243 246 188 168 169 176 177 175 177 176 170 170 170 167 164 159 157 153 149 145 141 137 143 151 152 155 152 147 147 145 143 140 136 131 131 132
219 239 245 249 253 258 258 254 249 246 245 238 234 239 235 190 182 180 185 184 181 181 182 176 172 171 167 162 163 165 164 161 163 158 157 160 158 157 154 142 145 144 144 144 141 138 146 167 158
228 245 255 254 259 264 265 261 258 248 246 240 234 233 223 198 195 192 192 194 190 185 186 180 175 172 168 164 166 165 166 168 168 165 166 163 159 157 158 158 156 157 160 162 154 169 178 184 178
244 252 259 260 263 266 266 266 260 249 251 255 250 244 235 210 204 197 196 201 198 190 186 182 177 174 173 169 167 167 167 168 167 169 170 168 166 168 167 170 170 172 178 177 182 189 183 191 194
248 256 259 261 262 266 266 263 266 258 258 264 254 242 230 220 212 200 196 195 199 195 188 185 180 176 176 173 170 172 171 171 170 170 176 175 172 173 171 173 174 180 179 184 190 196 193 200 205
260 266 267 264 260 258 258 262 261 256 257 258 246 237 230 224 214 203 196 195 198 197 191 187 183 179 177 177 174 175 175 173 172 174 180 180 179 176 176 177 180 182 185 190 196 199 201 208 217
267 272 268 257 252 248 252 257 247 257 255 248 242 234 230 226 215 202 198 197 198 199 195 188 184 181 181 180 178 177 178 176 177 178 182 185 185 183 182 184 185 187 188 191 198 199 210 216 223
253 251 255 248 236 230 225 251 251 254 245 242 239 234 233 225 215 203 196 202 203 198 199 191 183 183 184 182 180 178 179 178 180 180 184 189 190 189 190 192 194 191 190 195 199 203 208 214 226
224 242 256 265 227 218 220 250 262 266 250 246 239 236 233 221 213 203 191 197 203 200 201 192 185 184 184 180 178 176 175 180 180 183 187 191 194 196 199 201 199 194 197 201 201 209 213 217 226
244 257 259 257 229 226 234 248 259 258 246 240 234 231 230 218 208 198 196 190 198 210 202 192 186 183 177 172 171 170 177 182 184 189 193 193 197 200 204 205 204 199 200 203 206 208 211 225 231
266 260 261 267 250 234 241 252 260 261 245 234 227 221 218 214 192 181 193 178 192 213 206 195 188 177 174 172 174 175 183 185 188 194 196 195 198 201 204 207 207 204 208 208 208 207 210 217 222
258 255 259 271 247 240 245 258 258 251 238 231 219 218 209 196 182 178 181 182 196 206 205 194 192 178 180 183 181 178 176 184 186 187 194 198 201 202 205 209 211 209 211 210 209 206 210 210 207
251 247 252 253 269 240 241 261 249 241 230 224 221 222 209 189 185 179 180 181 189 204 202 192 191 185 188 185 172 160 159 160 177 187 193 201 201 203 204 208 212 212 211 209 208 209 214 209 201
255 251 249 241 231 225 229 246 271 248 223 217 216 213 201 187 183 179 182 184 188 190 192 192 190 192 190 184 186 188 191 200 197 190 190 194 200 203 203 205 207 206 208 211 211 211 216 212 204
266 275 245 243 242 225 242 231 17 355 239 226 214 204 193 185 178 173 177 179 180 173 180 192 191 195 195 194 195 197 202 212 203 189 187 197 200 202 198 199 198 202 206 207 203 200 206 211 211
267 260 233 241 234 152 335 257 49 20 334 309 246 177 171 167 159 156 151 151 151 151 165 180 182 190 192 197 201 203 203 203 203 200 198 200 196 198 200 196 196 197 196 196 196 194 198 203 204
249 249 201 186 182 75 24 75 36 6 353 345 351 123 129 133 140 138 133 136 137 138 149 161 173 182 187 194 200 207 208 202 203 202 205 200 197 200 198 192 195 195 192 185 184 186 190 194 195
268 304 323 11 91 82 70 60 25 11 22 34 60 93 101 106 113 112 109 121 130 133 138 144 153 162 165 178 193 202 199 195 201 205 207 204 202 200 191 188 189 185 178 177 176 181 186 190 192
298 313 317 337 68 87 71 66 51 26 38 49 64 74 82 89 95 98 95 100 113 121 126 132 141 145 153 165 179 188 188 194 202 200 203 202 194 182 181 179 179 179 175 174 171 178 182 183 185
313 319 298 318 47 89 79 55 17 8 22 38 54 63 70 76 79 80 82 81 81 88 95 104 119 125 130 151 169 179 183 186 188 188 191 189 181 174 173 174 174 172 171 171 171 172 176 178 177
341 347 353 19 2 63 94 68 7 354 15 47 60 62 65 68 70 71 72 67 69 73 75 81 91 99 103 109 140 160 167 170 177 182 183 178 173 173 174 173 168 168 169 170 171 174 172 176 177
316 348 340 357 41 37 89 73 20 19 47 66 69 66 65 65 64 62 62 61 58 58 59 62 67 75 77 85 113 130 145 158 167 172 171 168 167 168 169 167 165 166 168 171 174 171 176 180 182
Height
1510 1512 1514 1517 1514 1503 1487 1482 1484 1487 1488 1490 1492 1492 1489 1489 1491 1494 1493 1492 1494 1497 1501 1504 1508 1512 1514 1517 1519 1520 1522 1524 1527 1529 1532 1535 1537 1539 1541 1542 1544 1545 1546 1548 1548 1549 1550 1550 1551
1509 1511 1514 1513 1504 1492 1479 1480 1483 1487 1489 1491 1492 1491 1489 1489 1491 1492 1490 1491 1494 1498 1501 1504 1508 1511 1514 1516 1519 1521 1523 1525 1527 1530 1532 1535 1537 1539 1541 1543 1545 1546 1548 1549 1550 1551 1552 1552 1553
1507 1509 1511 1505 1492 1479 1476 1477 1481 1486 1489 1490 1489 1488 1488 1489 1490 1490 1490 1491 1495 1499 1502 1504 1508 1511 1513 1516 1519 1521 1523 1525 1528 1530 1533 1535 1538 1540 1542 1544 1546 1547 1549 1550 1551 1553 1553 1554 1555
1507 1509 1507 1499 1481 1475 1476 1477 1481 1484 1487 1488 1487 1486 1487 1489 1489 1489 1490 1492 1496 1499 1502 1504 1508 1510 1513 1516 1518 1521 1523 1526 1528 1531 1533 1536 1538 1541 1543 1545 1547 1548 1550 1552 1553 1554 1555 1556 1556
1506 1505 1500 1488 1477 1475 1476 1479 1482 1482 1482 1484 1485 1483 1484 1486 1487 1487 1489 1492 1495 1499 1502 1504 1507 1510 1513 1515 1518 1521 1523 1526 1528 1531 1534 1537 1539 1541 1543 1545 1548 1549 1551 1553 1554 1555 1556 1557 1558
1504 1501 1492 1480 1473 1474 1476 1480 1482 1481 1479 1480 1481 1480 1480 1484 1485 1486 1488 1491 1495 1498 1501 1504 1507 1510 1513 1515 1518 1521 1523 1526 1529 1531 1534 1537 1539 1542 1544 1546 1548 1550 1552 1554 1555 1556 1557 1558 1559
1501 1496 1484 1477 1472 1471 1474 1478 1479 1478 1477 1477 1479 1478 1479 1481 1483 1485 1487 1490 1494 1497 1500 1503 1506 1510 1512 1515 1518 1521 1523 1526 1529 1532 1535 1537 1540 1542 1545 1547 1549 1551 1553 1554 1556 1557 1558 1559 1559
1498 1495 1483 1477 1473 1470 1473 1475 1476 1476 1474 1475 1477 1476 1476 1478 1480 1483 1485 1488 1492 1496 1499 1501 1505 1509 1512 1515 1518 1520 1523 1526 1529 1532 1534 1537 1540 1543 1545 1548 1550 1552 1553 1555 1556 1557 1558 1559 1560
1496 1494 1480 1475 1472 1470 1472 1473 1474 1474 1473 1473 1473 1474 1474 1475 1477 1480 1483 1486 1490 1493 1497 1500 1503 1507 1511 1514 1517 1520 1523 1526 1529 1532 1534 1537 1540 1543 1545 1548 1550 1552 1554 1555 1557 1558 1559 1559 1560
1492 1485 1476 1474 1473 1472 1472 1472 1472 1471 1469 1469 1470 1471 1471 1472 1474 1476 1478 1482 1484 1489 1494 1498 1501 1505 1509 1512 1515 1519 1522 1525 1528 1531 1534 1537 1540 1542 1545 1547 1550 1552 1553 1555 1556 1557 1559 1559 1560
1486 1480 1476 1475 1475 1474 1473 1471 1470 1469 1466 1465 1466 1467 1468 1469 1471 1472 1474 1478 1481 1486 1491 1495 1499 1503 1506 1510 1514 1517 1521 1524 1527 1530 1533 1536 1538 1541 1544 1547 1549 1551 1553 1555 1556 1557 1558 1559 1559
1483 1478 1477 1475 1474 1474 1472 1470 1468 1466 1464 1464 1464 1464 1465 1465 1467 1469 1471 1474 1479 1483 1487 1492 1495 1500 1504 1508 1511 1515 1519 1522 1525 1528 1531 1534 1537 1540 1543 1546 1548 1550 1552 1554 1555 1556 1557 1558 1558
1479 1475 1474 1473 1473 1471 1470 1467 1465 1462 1462 1461 1461 1461 1462 1462 1464 1466 1468 1472 1476 1480 1483 1488 1492 1497 1502 1506 1509 1513 1517 1520 1524 1527 1530 1533 1536 1539 1542 1545 1547 1549 1551 1552 1554 1555 1556 1557 1557
1475 1473 1471 1470 1469 1467 1466 1463 1462 1457 1458 1458 1457 1458 1458 1459 1460 1462 1465 1468 1472 1475 1480 1484 1489 1494 1499 1503 1507 1511 1515 1519 1522 1525 1529 1532 1535 1538 1541 1543 1545 1547 1549 1551 1552 1554 1554 1555 1556
1475 1472 1467 1464 1463 1463 1464 1459 1455 1454 1454 1454 1454 1454 1455 1455 1457 1458 1461 1464 1467 1473 1477 1480 1486 1492 1496 1501 1505 1509 1513 1517 1520 1524 1527 1531 1534 1537 1539 1542 1544 1546 1547 1549 1550 1552 1553 1553 1554
1472 1468 1462 1457 1458 1459 1464 1453 1448 1450 1450 1449 1450 1450 1451 1452 1454 1455 1457 1461 1465 1469 1473 1478 1483 1489 1494 1499 1503 1507 1511 1515 1519 1522 1526 1529 1532 1535 1537 1540 1542 1544 1545 1547 1548 1549 1551 1551 1552
1466 1461 1456 1454 1453 1454 1455 1449 1445 1446 1446 1445 1446 1447 1447 1448 1450 1453 1456 1459 1463 1466 1471 1476 1481 1486 1491 1496 1500 1504 1509 1513 1517 1520 1524 1527 1530 1533 1535 1538 1540 1542 1543 1545 1546 1547 1548 1549 1550
1460 1457 1453 1452 1449 1450 1449 1445 1443 1443 1443 1442 1443 1444 1444 1446 1447 1449 1453 1457 1460 1465 1468 1474 1479 1483 1488 1493 1497 1502 1506 1510 1514 1518 1521 1524 1527 1530 1533 1535 1537 1539 1541 1542 1544 1545 1546 1547 1548
1462 1458 1452 1448 1447 1447 1443 1441 1439 1438 1438 1438 1439 1440 1442 1443 1445 1448 1451 1454 1459 1462 1466 1471 1476 1480 1485 1489 1494 1498 1503 1507 1511 1515 1518 1521 1524 1527 1530 1532 1534 1536 1538 1539 1541 1542 1543 1544 1545
1460 1456 1450 1446 1444 1443 1440 1437 1435 1435 1434 1435 1436 1438 1439 1440 1443 1446 1449 1453 1457 1460 1463 1468 1472 1477 1483 1487 1491 1496 1500 1504 1508 1512 1515 1518 1521 1524 1527 1529 1531 1533 1535 1536 1538 1539 1540 1541 1542
1455 1452 1448 1445 1444 1441 1439 1436 1432 1430 1431 1433 1434 1435 1436 1438 1441 1444 1446 1449 1454 1457 1460 1465 1469 1474 1479 1484 1489 1493 1498 1501 1505 1508 1511 1514 1517 1520 1523 1525 1527 1529 1531 1533 1534 1535 1537 1538 1538
1451 1448 1447 1445 1443 1440 1438 1434 1429 1427 1428 1430 1432 1433 1435 1437 1439 1442 1444 1448 1453 1456 1459 1463 1468 1472 1477 1481 1485 1489 1493 1497 1501 1504 1507 1510 1513 1516 1518 1521 1523 1525 1527 1529 1530 1532 1533 1534 1534
1450 1447 1446 1445 1442 1439 1436 1433 1430 1427 1427 1428 1428 1431 1433 1436 1438 1441 1444 1448 1451 1455 1458 1461 1465 1469 1473 1477 1481 1485 1489 1493 1496 1500 1503 1506 1509 1511 1514 1516 1518 1520 1522 1524 1526 1527 1529 1530 1531
1451 1448 1445 1442 1439 1439 1436 1433 1432 1429 1430 1428 1428 1430 1433 1435 1438 1441 1444 1447 1450 1453 1456 1460 1463 1466 1469 1474 1477 1481 1485 1489 1492 1495 1499 1502 1504 1506 1509 1511 1513 1515 1517 1519 1521 1523 1524 1525 1526
1450 1447 1442 1439 1435 1435 1436 1434 1435 1433 1433 1431 1430 1431 1433 1435 1438 1441 1443 1446 1449 1452 1456 1459 1461 1465 1468 1471 1474 1478 1481 1485 1488 1490 1493 1496 1499 1501 1504 1506 1508 1510 1512 1514 1516 1518 1520 1520 1521
1449 1448 1443 1436 1432 1434 1436 1436 1438 1437 1435 1434 1433 1433 1434 1436 1438 1441 1444 1447 1450 1452 1456 1458 1461 1464 1466 1469 1472 1476 1478 1480 1483 1486 1489 1491 1494 1496 1498 1501 1503 1505 1507 1509 1511 1513 1514 1515 1515
1448 1446 1447 1441 1436 1433 1436 1438 1437 1437 1437 1437 1436 1436 1437 1439 1441 1444 1446 1449 1451 1453 1456 1458 1461 1463 1466 1468 1471 1473 1475 1478 1480 1483 1485 1488 1489 1491 1494 1496 1499 1500 1502 1504 1506 1508 1509 1510 1510
1451 1448 1444 1440 1435 1434 1438 1440 1444 1442 1442 1441 1440 1441 1442 1442 1444 1446 1448 1450 1452 1454 1456 1458 1460 1463 1465 1467 1469 1471 1473 1475 1477 1480 1482 1483 1485 1487 1490 1492 1494 1495 1497 1499 1501 1503 1504 1505 1505
1450 1448 1446 1442 1438 1433 1437 1448 1452 1450 1449 1447 1446 1446 1446 1446 1447 1448 1449 1451 1453 1454 1456 1458 1460 1462 1464 1466 1468 1469 1471 1472 1474 1476 1478 1479 1481 1483 1485 1487 1489 1491 1493 1495 1496 1498 1499 1499 1500
1453 1450 1447 1442 1443 1439 1437 1454 1455 1454 1453 1451 1451 1451 1451 1451 1451 1451 1452 1453 1454 1455 1457 1458 1460 1462 1463 1465 1466 1467 1468 1469 1471 1473 1474 1476 1477 1479 1481 1482 1484 1486 1488 1490 1492 1493 1494 1494 1495